Location: *
(45.9500°N, 9.0833°E)
Time: 20:04:20
(UTC+00:00)

Vanguard 2 Rocket - Pass Details

Date: 16 June 2021
Orbit: 555 x 3325 km, 32.9° (Epoch: 30 July)

Event Time Altitude Azimuth Distance (km) Brightness Sun altitude
Rises 16:10:35 0° 186° (S) 7,207 11.5 29.2°
Reaches altitude 10° 16:18:56 10° 167° (SSE) 6,274 11.1 27.7°
Maximum altitude 16:28:09 15° 139° (SE) 5,654 10.6 26.1°
Drops below altitude 10° 16:36:36 10° 111° (ESE) 5,713 10.5 24.7°
Sets 16:43:17 0° 92° (E) 6,255 10.6 23.5°
